Time,TemperatureF,DewpointF,PressureIn,WindDirection,WindDirectionDegrees,WindSpeedMPH,WindSpeedGustMPH,Humidity,HourlyPrecipIn,Conditions,Clouds,dailyrainin,SoftwareType,DateUTC
2013-05-01 00:01:00,64.0,10.0,29.35,WSW,248,3.0,-999.0,12,-99.99,,,0.00,weatherlink.com 1.10,2013-05-01 06:01:00,
2013-05-01 00:16:00,63.5,10.0,29.36,WSW,248,3.0,-999.0,12,-99.99,,,0.00,weatherlink.com 1.10,2013-05-01 06:16:00,
2013-05-01 00:31:00,63.7,12.0,29.35,WSW,243,7.0,-999.0,13,-99.99,,,0.00,weatherlink.com 1.10,2013-05-01 06:31:00,
2013-05-01 00:46:00,63.9,12.0,29.35,West,271,4.0,-999.0,13,-99.99,,,0.00,weatherlink.com 1.10,2013-05-01 06:46:00,
2013-05-01 01:01:00,63.5,12.0,29.35,WSW,255,10.0,-999.0,13,-99.99,,,0.00,weatherlink.com 1.10,2013-05-01 07:01:00,
2013-05-01 01:16:00,63.1,11.0,29.35,WSW,258,5.0,-999.0,13,-99.99,,,0.00,weatherlink.com 1.10,2013-05-01 07:16:00,
2013-05-01 01:31:00,61.6,12.0,29.37,WSW,246,4.0,-999.0,14,-99.99,,,0.00,weatherlink.com 1.10,2013-05-01 07:31:00,
2013-05-01 01:46:00,60.1,10.0,29.39,SW,235,0.0,-999.0,14,-99.99,,,0.00,weatherlink.com 1.10,2013-05-01 07:46:00,
2013-05-01 02:01:00,59.9,10.0,29.38,SW,235,0.0,-999.0,14,-99.99,,,0.00,weatherlink.com 1.10,2013-05-01 08:01:00,
2013-05-01 02:16:00,60.1,12.0,29.38,SW,219,0.0,-999.0,15,-99.99,,,0.00,weatherlink.com 1.10,2013-05-01 08:16:00,
2013-05-01 02:31:00,58.7,11.0,29.37,SW,221,0.0,-999.0,15,-99.99,,,0.00,weatherlink.com 1.10,2013-05-01 08:31:00,
2013-05-01 02:46:00,57.5,11.0,29.39,SW,221,0.0,-999.0,16,-99.99,,,0.00,weatherlink.com 1.10,2013-05-01 08:46:00,
2013-05-01 03:01:00,58.1,10.0,29.39,West,263,11.0,-999.0,15,-99.99,,,0.00,weatherlink.com 1.10,2013-05-01 09:01:00,
2013-05-01 03:17:00,58.3,11.0,29.41,NW,326,3.0,-999.0,15,-99.99,,,0.00,weatherlink.com 1.10,2013-05-01 09:17:00,
2013-05-01 03:32:00,57.0,11.0,29.41,WSW,246,2.0,-999.0,16,-99.99,,,0.00,weatherlink.com 1.10,2013-05-01 09:32:00,
2013-05-01 03:47:00,58.6,11.0,29.41,WSW,253,1.0,-999.0,15,-99.99,,,0.00,weatherlink.com 1.10,2013-05-01 09:47:00,
2013-05-01 04:02:00,58.1,10.0,29.42,WSW,253,0.0,-999.0,15,-99.99,,,0.00,weatherlink.com 1.10,2013-05-01 10:02:00,
2013-05-01 04:17:00,58.1,12.0,29.43,WSW,253,0.0,-999.0,16,-99.99,,,0.00,weatherlink.com 1.10,2013-05-01 10:17:00,
2013-05-01 04:32:00,58.6,17.0,29.44,WNW,290,6.0,-999.0,20,-99.99,,,0.00,weatherlink.com 1.10,2013-05-01 10:32:00,
2013-05-01 04:47:00,57.6,20.0,29.44,NW,313,1.0,-999.0,23,-99.99,,,0.00,weatherlink.com 1.10,2013-05-01 10:47:00,
2013-05-01 05:02:00,56.5,21.0,29.46,NW,323,0.0,-999.0,25,-99.99,,,0.00,weatherlink.com 1.10,2013-05-01 11:02:00,
2013-05-01 05:17:00,54.5,21.0,29.48,NW,323,0.0,-999.0,27,-99.99,,,0.00,weatherlink.com 1.10,2013-05-01 11:17:00,
2013-05-01 05:32:00,52.8,20.0,29.49,NW,323,2.0,-999.0,28,-99.99,,,0.00,weatherlink.com 1.10,2013-05-01 11:32:00,
2013-05-01 05:47:00,51.1,21.0,29.51,NW,326,0.0,-999.0,31,-99.99,,,0.00,weatherlink.com 1.10,2013-05-01 11:47:00,
2013-05-01 06:02:00,51.3,23.0,29.52,NW,326,2.0,-999.0,33,-99.99,,,0.00,weatherlink.com 1.10,2013-05-01 12:02:00,
2013-05-01 06:17:00,52.3,27.0,29.53,NW,326,0.0,-999.0,38,-99.99,,,0.00,weatherlink.com 1.10,2013-05-01 12:17:00,
2013-05-01 06:33:00,50.4,24.0,29.55,NW,326,0.0,-999.0,35,-99.99,,,0.00,weatherlink.com 1.10,2013-05-01 12:33:00,
2013-05-01 06:48:00,51.3,28.0,29.56,West,262,3.0,-999.0,41,-99.99,,,0.00,weatherlink.com 1.10,2013-05-01 12:48:00,
2013-05-01 07:03:00,52.8,29.0,29.55,West,259,2.0,-999.0,41,-99.99,,,0.00,weatherlink.com 1.10,2013-05-01 13:03:00,
2013-05-01 07:19:00,53.3,30.0,29.57,WNW,290,0.0,-999.0,41,-99.99,,,0.00,weatherlink.com 1.10,2013-05-01 13:19:00,
2013-05-01 07:32:00,54.4,30.0,29.59,West,261,4.0,-999.0,39,-99.99,,,0.00,weatherlink.com 1.10,2013-05-01 13:32:00,
2013-05-01 07:48:00,55.1,28.0,29.58,WNW,293,5.0,-999.0,36,-99.99,,,0.00,weatherlink.com 1.10,2013-05-01 13:48:00,
2013-05-01 08:03:00,56.3,28.0,29.59,West,273,9.0,-999.0,34,-99.99,,,0.00,weatherlink.com 1.10,2013-05-01 14:03:00,
2013-05-01 08:19:00,57.5,25.0,29.59,WNW,297,4.0,-999.0,29,-99.99,,,0.00,weatherlink.com 1.10,2013-05-01 14:19:00,
2013-05-01 08:34:00,58.3,24.0,29.61,WNW,299,5.0,-999.0,27,-99.99,,,0.00,weatherlink.com 1.10,2013-05-01 14:34:00,
2013-05-01 08:48:00,59.3,24.0,29.61,WNW,282,5.0,-999.0,26,-99.99,,,0.00,weatherlink.com 1.10,2013-05-01 14:48:00,
2013-05-01 09:04:00,60.4,22.0,29.61,NW,312,5.0,-999.0,23,-99.99,,,0.00,weatherlink.com 1.10,2013-05-01 15:04:00,
2013-05-01 09:18:00,60.5,20.0,29.60,WNW,301,8.0,-999.0,21,-99.99,,,0.00,weatherlink.com 1.10,2013-05-01 15:18:00,
2013-05-01 09:34:00,60.7,22.0,29.63,WNW,298,6.0,-999.0,23,-99.99,,,0.00,weatherlink.com 1.10,2013-05-01 15:34:00,
2013-05-01 09:49:00,61.0,22.0,29.63,WNW,295,3.0,-999.0,22,-99.99,,,0.00,weatherlink.com 1.10,2013-05-01 15:49:00,
2013-05-01 10:04:00,61.6,22.0,29.62,West,273,11.0,-999.0,22,-99.99,,,0.00,weatherlink.com 1.10,2013-05-01 16:04:00,
2013-05-01 10:20:00,62.0,24.0,29.62,SW,218,15.0,-999.0,23,-99.99,,,0.00,weatherlink.com 1.10,2013-05-01 16:20:00,
2013-05-01 10:33:00,61.6,23.0,29.65,West,271,10.0,-999.0,23,-99.99,,,0.00,weatherlink.com 1.10,2013-05-01 16:33:00,
2013-05-01 10:49:00,61.5,23.0,29.65,West,271,15.0,-999.0,23,-99.99,,,0.00,weatherlink.com 1.10,2013-05-01 16:49:00,
2013-05-01 11:04:00,61.0,25.0,29.65,WSW,250,12.0,-999.0,25,-99.99,,,0.00,weatherlink.com 1.10,2013-05-01 17:04:00,
2013-05-01 11:20:00,62.6,24.0,29.64,WSW,257,10.0,-999.0,23,-99.99,,,0.00,weatherlink.com 1.10,2013-05-01 17:20:00,
2013-05-01 11:35:00,63.4,24.0,29.65,WSW,241,17.0,-999.0,22,-99.99,,,0.00,weatherlink.com 1.10,2013-05-01 17:35:00,
2013-05-01 11:51:00,63.7,18.0,29.65,WSW,249,15.0,-999.0,17,-99.99,,,0.00,weatherlink.com 1.10,2013-05-01 17:51:00,
2013-05-01 12:05:00,64.0,14.0,29.66,WSW,250,13.0,-999.0,14,-99.99,,,0.00,weatherlink.com 1.10,2013-05-01 18:05:00,
2013-05-01 12:20:00,64.3,10.0,29.64,West,278,15.0,-999.0,12,-99.99,,,0.00,weatherlink.com 1.10,2013-05-01 18:20:00,
2013-05-01 12:35:00,64.8,11.0,29.66,West,260,10.0,-999.0,12,-99.99,,,0.00,weatherlink.com 1.10,2013-05-01 18:35:00,
2013-05-01 12:50:00,63.9,10.0,29.64,West,281,15.0,-999.0,12,-99.99,,,0.00,weatherlink.com 1.10,2013-05-01 18:50:00,
2013-05-01 13:06:00,64.0,12.0,29.66,West,274,17.0,-999.0,13,-99.99,,,0.00,weatherlink.com 1.10,2013-05-01 19:06:00,
2013-05-01 13:20:00,63.9,10.0,29.66,WSW,252,10.0,-999.0,12,-99.99,,,0.00,weatherlink.com 1.10,2013-05-01 19:20:00,
2013-05-01 13:35:00,64.2,10.0,29.67,WSW,249,23.0,-999.0,12,-99.99,,,0.00,weatherlink.com 1.10,2013-05-01 19:35:00,
2013-05-01 13:51:00,64.2,10.0,29.67,WNW,290,17.0,-999.0,12,-99.99,,,0.00,weatherlink.com 1.10,2013-05-01 19:51:00,
2013-05-01 14:06:00,65.2,9.0,29.68,WSW,253,16.0,-999.0,11,-99.99,,,0.00,weatherlink.com 1.10,2013-05-01 20:06:00,
2013-05-01 14:21:00,66.1,5.0,29.66,WNW,289,16.0,-999.0,9,-99.99,,,0.00,weatherlink.com 1.10,2013-05-01 20:21:00,
2013-05-01 14:37:00,66.1,5.0,29.70,WSW,255,22.0,-999.0,9,-99.99,,,0.00,weatherlink.com 1.10,2013-05-01 20:37:00,
2013-05-01 14:52:00,64.8,4.0,29.68,West,281,14.0,-999.0,9,-99.99,,,0.00,weatherlink.com 1.10,2013-05-01 20:52:00,
2013-05-01 15:07:00,65.6,2.0,29.70,WSW,243,19.0,-999.0,8,-99.99,,,0.00,weatherlink.com 1.10,2013-05-01 21:07:00,
2013-05-01 15:22:00,65.2,2.0,29.68,West,274,16.0,-999.0,8,-99.99,,,0.00,weatherlink.com 1.10,2013-05-01 21:22:00,
2013-05-01 15:37:00,66.0,0.0,29.69,West,264,21.0,-999.0,7,-99.99,,,0.00,weatherlink.com 1.10,2013-05-01 21:37:00,
2013-05-01 15:53:00,64.8,2.0,29.69,West,269,13.0,-999.0,8,-99.99,,,0.00,weatherlink.com 1.10,2013-05-01 21:53:00,
2013-05-01 16:07:00,65.8,3.0,29.68,NW,314,9.0,-999.0,8,-99.99,,,0.00,weatherlink.com 1.10,2013-05-01 22:07:00,
2013-05-01 16:22:00,65.3,-1.0,29.67,West,269,11.0,-999.0,7,-99.99,,,0.00,weatherlink.com 1.10,2013-05-01 22:22:00,
2013-05-01 16:38:00,65.2,-1.0,29.71,NW,312,10.0,-999.0,7,-99.99,,,0.00,weatherlink.com 1.10,2013-05-01 22:38:00,
2013-05-01 16:52:00,64.5,-5.0,29.71,West,272,14.0,-999.0,6,-99.99,,,0.00,weatherlink.com 1.10,2013-05-01 22:52:00,
2013-05-01 17:07:00,63.9,-5.0,29.72,West,272,14.0,-999.0,6,-99.99,,,0.00,weatherlink.com 1.10,2013-05-01 23:07:00,
2013-05-01 17:23:00,63.2,-9.0,29.74,WSW,255,13.0,-999.0,5,-99.99,,,0.00,weatherlink.com 1.10,2013-05-01 23:23:00,
2013-05-01 17:39:00,62.1,-6.0,29.77,NW,313,18.0,-999.0,6,-99.99,,,0.00,weatherlink.com 1.10,2013-05-01 23:39:00,
2013-05-01 17:54:00,61.2,-7.0,29.79,WNW,301,10.0,-999.0,6,-99.99,,,0.00,weatherlink.com 1.10,2013-05-01 23:54:00,
2013-05-01 18:09:00,59.9,-8.0,29.81,WNW,289,15.0,-999.0,6,-99.99,,,0.00,weatherlink.com 1.10,2013-05-02 00:09:00,
2013-05-01 18:24:00,59.2,-5.0,29.81,WNW,289,15.0,-999.0,7,-99.99,,,0.00,weatherlink.com 1.10,2013-05-02 00:24:00,
2013-05-01 18:38:00,58.0,-6.0,29.82,WNW,284,17.0,-999.0,7,-99.99,,,0.00,weatherlink.com 1.10,2013-05-02 00:38:00,
2013-05-01 18:55:00,57.5,-7.0,29.84,NW,311,17.0,-999.0,7,-99.99,,,0.00,weatherlink.com 1.10,2013-05-02 00:55:00,
2013-05-01 19:10:00,56.5,-7.0,29.84,NW,321,11.0,-999.0,7,-99.99,,,0.00,weatherlink.com 1.10,2013-05-02 01:10:00,
2013-05-01 19:24:00,55.4,-5.0,29.87,NNW,328,12.0,-999.0,8,-99.99,,,0.00,weatherlink.com 1.10,2013-05-02 01:24:00,
2013-05-01 19:39:00,54.2,-6.0,29.85,NW,312,14.0,-999.0,8,-99.99,,,0.00,weatherlink.com 1.10,2013-05-02 01:39:00,
2013-05-01 19:54:00,52.9,-7.0,29.87,NW,320,4.0,-999.0,8,-99.99,,,0.00,weatherlink.com 1.10,2013-05-02 01:54:00,
2013-05-01 20:09:00,52.0,-8.0,29.89,NW,319,10.0,-999.0,8,-99.99,,,0.00,weatherlink.com 1.10,2013-05-02 02:09:00,
2013-05-01 20:25:00,51.3,-9.0,29.90,NNW,340,6.0,-999.0,8,-99.99,,,0.00,weatherlink.com 1.10,2013-05-02 02:25:00,
2013-05-01 20:40:00,50.2,-9.0,29.90,WNW,295,10.0,-999.0,8,-99.99,,,0.00,weatherlink.com 1.10,2013-05-02 02:40:00,
2013-05-01 20:55:00,49.9,-12.0,29.92,NW,308,6.0,-999.0,7,-99.99,,,0.00,weatherlink.com 1.10,2013-05-02 02:55:00,
2013-05-01 21:10:00,49.6,-13.0,29.92,NW,313,5.0,-999.0,7,-99.99,,,0.00,weatherlink.com 1.10,2013-05-02 03:10:00,
2013-05-01 21:25:00,48.2,-11.0,29.92,NNW,335,0.0,-999.0,8,-99.99,,,0.00,weatherlink.com 1.10,2013-05-02 03:25:00,
2013-05-01 21:40:00,47.3,-14.0,29.94,NNW,329,1.0,-999.0,7,-99.99,,,0.00,weatherlink.com 1.10,2013-05-02 03:40:00,
2013-05-01 21:55:00,46.8,-12.0,29.96,WNW,288,4.0,-999.0,8,-99.99,,,0.00,weatherlink.com 1.10,2013-05-02 03:55:00,
2013-05-01 22:10:00,47.1,-12.0,29.97,West,278,10.0,-999.0,8,-99.99,,,0.00,weatherlink.com 1.10,2013-05-02 04:10:00,
2013-05-01 22:25:00,47.0,-12.0,29.97,West,276,8.0,-999.0,8,-99.99,,,0.00,weatherlink.com 1.10,2013-05-02 04:25:00,
2013-05-01 22:40:00,46.8,-10.0,29.96,WNW,292,7.0,-999.0,9,-99.99,,,0.00,weatherlink.com 1.10,2013-05-02 04:40:00,
2013-05-01 22:55:00,46.4,-8.0,29.97,WNW,299,0.0,-999.0,10,-99.99,,,0.00,weatherlink.com 1.10,2013-05-02 04:55:00,
2013-05-01 23:10:00,45.4,-8.0,29.99,WSW,237,0.0,-999.0,10,-99.99,,,0.00,weatherlink.com 1.10,2013-05-02 05:10:00,
2013-05-01 23:25:00,43.9,-8.0,30.00,WSW,248,3.0,-999.0,11,-99.99,,,0.00,weatherlink.com 1.10,2013-05-02 05:25:00,
2013-05-01 23:41:00,45.1,-3.0,30.00,WNW,299,6.0,-999.0,13,-99.99,,,0.00,weatherlink.com 1.10,2013-05-02 05:41:00,
2013-05-01 23:56:00,45.4,-3.0,29.98,WNW,282,3.0,-999.0,13,-99.99,,,0.00,weatherlink.com 1.10,2013-05-02 05:56:00,